Weather History for CWVI - September, 2013

Change the Weather History Date:

Friday, September 20, 2013

  Actual Average Record
Temperature  
Mean Temperature 54 °F -  
Max Temperature 72 °F - - ()
Min Temperature 36 °F - - ()
Degree Days  
Heating Degree Days 11    
Growing Degree Days 4 (Base 50)    
Moisture  
Dew Point 36 °F    
Average Humidity 55    
Maximum Humidity 86    
Minimum Humidity 25    
Precipitation  
Precipitation 0.00 in - - ()
Sea Level Pressure  
Sea Level Pressure 29.79 in    
Wind  
Wind Speed 7 mph ()    
Max Wind Speed 13 mph    
Max Gust Speed -    
T = Trace of Precipitation, MM = Missing Value Source: Averaged Metar Reports

Daily Weather History Graph

Daily Weather History Graph

Search for Another Location

Airport or City:

Trip Planner

Search our weather history database for the weather conditions in past years. The results will help you decide how hot, cold, wet, or windy it might be!

Date:

Astronomy

Sep. 20, 2013 Rise Set
Actual Time 7:11 AM MDT 7:30 PM MDT
Civil Twilight 6:36 AM MDT 8:05 PM MDT
Nautical Twilight 5:54 AM MDT 8:47 PM MDT
Astronomical Twilight 5:10 AM MDT 9:31 PM MDT
Moon 7:45 PM MDT (9/20) 8:47 AM MDT (9/20)
Length of Visible Light 13h 29m
Length of Day
12h 19m
Full, 98% of the Moon is Illuminated
Sep 20
Full
Sep 26
Last Quarter
Oct 4
New
Oct 11
First Quarter
Oct 18
Full

Hourly Weather History & Observations

Time (MDT) Temp. Windchill Dew Point Humidity Pressure Visibility Wind Dir Wind Speed Gust Speed Precip Events Conditions
12:00 AM 43.2 °F 39.7 °F 35.1 °F 73% 29.95 in - SSE 5.8 mph - N/A   Unknown
1:00 AM 43.9 °F 39.9 °F 35.6 °F 73% 29.93 in - SSE 6.9 mph - N/A   Unknown
2:00 AM 43.9 °F 39.3 °F 35.8 °F 73% 29.92 in - SSE 8.1 mph - N/A   Unknown
3:00 AM 41.9 °F 36.9 °F 35.2 °F 77% 29.90 in - SSE 8.1 mph - N/A   Unknown
4:00 AM 41.5 °F 37.8 °F 35.2 °F 78% 29.89 in - SSE 5.8 mph - N/A   Unknown
5:00 AM 41.9 °F 36.9 °F 35.1 °F 77% 29.88 in - SSE 8.1 mph - N/A   Unknown
6:00 AM 41 °F - 35 °F 73% 29.87 in - SSE 8.1 mph - -  
6:00 AM 41.0 °F 35.8 °F 35.2 °F 80% 29.87 in - SSE 8.1 mph - N/A   Unknown
7:00 AM 37.8 °F 35.3 °F 33.8 °F 86% 29.87 in - South 3.5 mph - N/A   Unknown
8:00 AM 39.6 °F 37.4 °F 34.7 °F 83% 29.87 in - SE 3.5 mph - N/A   Unknown
9:00 AM 48.4 °F - 37.9 °F 67% 29.86 in - SSE 8.1 mph - N/A   Unknown
10:00 AM 53.6 °F - 37.9 °F 55% 29.84 in - SSE 10.4 mph - N/A   Unknown
11:00 AM 59.9 °F - 40.1 °F 48% 29.81 in - SSE 10.4 mph - N/A   Unknown
12:00 PM 64 °F - 38 °F 26% 29.79 in - South 9.2 mph - -  
12:00 PM 64.0 °F - 37.8 °F 38% 29.79 in - South 9.2 mph - N/A   Unknown
1:00 PM 68.2 °F - 37.4 °F 32% 29.77 in - South 10.4 mph - N/A   Unknown
2:00 PM 71.4 °F - 35.4 °F 27% 29.74 in - South 9.2 mph - N/A   Unknown
3:00 PM 72.1 °F - 35.8 °F 26% 29.72 in - SE 10.4 mph - N/A   Unknown
4:00 PM 72.7 °F - 34.9 °F 25% 29.70 in - SSE 10.4 mph - N/A   Unknown
5:00 PM 72.5 °F - 35.8 °F 26% 29.69 in - SSE 12.7 mph - N/A   Unknown
6:00 PM 70.9 °F - 35.8 °F 28% 29.68 in - SE 9.2 mph - N/A   Unknown
7:00 PM 66.2 °F - 35.1 °F 32% 29.67 in - SE 6.9 mph - N/A   Unknown
8:00 PM 58.3 °F - 36.3 °F 44% 29.66 in - SE 5.8 mph - N/A   Unknown
9:00 PM 50.9 °F - 34.7 °F 54% 29.65 in - SSE 4.6 mph - N/A   Unknown
10:00 PM 49.1 °F - 36.0 °F 61% 29.64 in - SSE 5.8 mph - N/A   Unknown
11:00 PM 47.7 °F - 36.1 °F 64% 29.60 in - SSE 5.8 mph - N/A   Unknown